GEFSSE_con_cape1000_114.txt.gz
Probability
55 48 84 81 65 68 65 65 68 74 71 65 61 68 87 77 77 81 87 84 84 84 71 74 74 71 74 71 71 77 84 84 81 87 84 90 77 71 77 84 84 84 84
42 45 84 77 61 58 65 58 52 55 48 55 55 61 68 71 81 81 77 84 81 84 77 74 74 77 71 74 68 74 71 77 77 84 94 94 84 71 68 77 77 81 81
32 39 61 65 55 45 42 32 39 32 32 35 45 45 65 68 74 71 77 81 81 77 81 81 71 77 77 71 65 74 74 74 81 81 87 84 84 74 71 65 71 68 71
19 29 35 58 39 39 26 29 26 23 19 16 16 29 42 58 68 58 55 61 65 71 77 74 74 81 77 74 74 77 68 74 77 94 71 71 65 74 71 71 71 71 68
23 23 39 52 42 32 23 23 19 19 16 13 23 26 35 39 52 48 55 61 58 61 61 68 68 68 68 71 74 74 74 74 84 84 65 61 58 77 65 71 65 61 65
19 16 26 42 26 19 26 23 19 13 13 6 13 13 19 19 29 39 45 45 55 52 55 65 61 61 68 65 68 68 74 74 71 55 61 65 65 77 52 61 61 45 52
10 13 19 32 26 23 16 16 10 10 13 10 3 3 13 16 26 32 35 42 39 42 52 61 65 48 61 65 58 58 65 74 61 42 55 68 61 74 52 52 58 48 55
10 6 19 45 32 23 16 10 10 13 10 10 10 13 16 13 16 23 29 32 39 42 48 48 52 48 48 61 55 58 61 61 29 19 42 52 77 71 55 48 52 55 58
10 6 6 6 16 26 16 13 6 10 6 6 10 10 16 13 10 10 23 26 42 42 35 35 48 42 42 52 52 55 65 68 52 16 16 48 77 77 48 48 45 65 68
6 6 6 3 3 6 10 19 6 6 10 13 16 13 10 6 19 23 29 26 26 35 32 32 39 48 42 61 58 58 71 74 32 10 16 39 81 61 48 45 52 58 74
3 3 6 6 3 3 3 6 10 6 13 10 10 16 16 0 3 10 13 19 16 16 29 35 35 42 39 61 61 58 61 26 10 10 16 68 84 48 42 48 58 58 68
3 3 3 3 3 3 3 3 3 6 6 6 3 3 3 3 0 0 16 23 26 29 35 42 39 32 32 19 32 58 13 13 13 13 23 81 74 42 32 48 65 61 74
0 0 3 3 3 3 3 3 3 0 0 0 3 3 3 3 0 0 0 6 16 16 10 19 23 10 6 6 10 13 3 6 3 10 26 77 65 39 48 48 74 81 74
0 0 3 3 0 0 0 0 0 0 0 0 0 0 0 0 0 0 0 0 3 3 6 6 6 3 16 10 13 6 6 6 10 19 13 65 74 68 52 61 65 77 77
0 0 3 3 3 0 0 0 0 0 0 0 0 0 0 0 0 0 0 0 3 3 3 3 6 3 3 10 6 3 6 13 10 13 13 65 71 68 52 68 65 68 74
0 3 3 3 3 0 0 0 0 0 0 0 0 0 0 0 0 0 0 0 3 3 3 3 3 0 0 3 3 3 6 10 6 3 3 32 68 71 74 71 68 68 68
0 3 3 3 3 0 0 0 0 0 0 0 0 0 0 0 0 0 0 0 3 3 3 0 3 3 0 3 6 3 10 6 3 6 3 13 10 55 84 81 77 74 68
3 3 3 3 3 0 3 3 3 0 0 0 0 0 0 0 0 0 0 0 3 3 3 0 3 0 0 0 3 0 0 6 0 0 0 10 6 0 42 87 84 84 74
3 3 3 3 3 3 3 3 3 3 0 0 0 0 0 0 0 0 0 0 0 3 3 0 0 0 0 0 0 3 6 6 0 0 0 0 6 0 3 26 74 77 77
3 3 3 3 3 3 3 3 3 3 0 0 0 0 0 0 0 0 0 0 0 3 3 0 0 0 0 0 0 0 0 6 0 0 0 0 0 3 0 0 13 35 65
0 0 0 0 0 0 0 0 0 0 0 0 0 0 0 0 0 0 0 0 0 0 0 0 3 0 0 0 0 0 0 0 0 0 0 0 0 0 3 0 0 0 13
0 0 0 0 0 0 0 0 0 0 0 0 0 0 0 0 0 0 3 0 0 0 0 0 3 3 0 0 0 0 0 0 0 0 3 0 0 0 0 3 0 0 0
0 0 0 0 0 0 0 0 0 0 0 0 0 0 0 0 0 3 0 3 0 0 0 0 3 3 0 0 0 0 0 0 0 0 0 3 0 0 0 0 0 0 3
0 0 0 0 0 0 0 0 0 0 0 0 0 0 0 0 0 3 0 3 3 0 0 0 3 3 0 0 0 0 0 0 0 0 0 0 0 0 0 0 0 0 3
0 0 0 0 0 0 0 0 0 0 0 0 0 0 0 0 0 0 3 0 3 0 0 0 0 3 0 0 0 0 0 0 0 0 0 0 0 0 0 0 0 0 0
0 0 0 0 0 0 0 0 0 0 0 0 0 0 0 0 0 0 0 0 0 0 3 3 3 3 0 0 0 0 0 0 0 0 0 0 0 0 0 0 0 0 3

GEFSSE_con_cape1000_120.txt.gz
Probability
16 39 87 77 74 74 71 74 81 71 68 71 68 74 74 77 87 97 94 90 94 94 77 77 68 65 61 71 65 65 61 61 71 71 68 74 71 65 71 65 74 84 71
16 61 84 81 71 71 68 61 65 68 65 65 61 65 74 68 87 90 87 87 87 87 84 74 74 71 68 65 58 61 65 61 71 74 74 77 68 61 65 68 74 77 68
29 58 74 77 71 68 65 58 61 61 58 45 42 52 55 65 74 81 77 74 77 77 74 77 68 74 74 74 58 58 65 71 68 77 74 58 58 71 65 61 58 61 65
26 39 52 65 61 58 48 42 45 42 32 29 23 26 32 42 58 61 65 71 71 68 68 71 65 61 61 65 61 65 61 65 68 74 42 48 45 68 74 68 58 55 74
23 29 55 55 52 52 45 42 35 29 19 19 19 19 26 29 39 48 55 58 61 68 77 71 68 61 61 68 65 65 68 74 71 52 19 26 26 61 68 68 61 65 68
23 23 45 52 39 39 32 32 29 19 16 19 16 16 23 26 39 42 39 52 58 58 58 61 58 58 48 52 58 45 58 68 58 26 19 16 23 68 65 58 55 65 58
19 23 35 45 42 35 32 26 16 16 13 10 13 13 10 10 16 29 32 45 48 48 48 45 52 55 65 61 65 58 61 68 39 10 13 13 19 77 55 58 61 55 52
10 19 26 55 35 32 26 23 13 16 10 10 16 13 13 13 19 16 23 29 42 42 42 55 58 55 52 65 68 65 61 77 23 13 13 6 42 77 61 58 68 68 52
10 13 13 23 29 32 29 23 16 13 13 13 10 6 10 13 10 13 16 26 29 35 35 32 48 55 55 58 65 65 71 81 32 10 6 10 71 77 71 61 71 71 68
6 3 10 10 13 16 16 26 23 13 13 16 16 16 16 19 13 10 13 16 19 23 29 35 42 48 52 58 65 61 71 68 19 10 10 10 77 81 68 71 71 74 74
3 3 3 3 6 6 3 10 13 13 13 16 16 19 16 0 0 0 0 6 6 16 23 32 42 52 48 42 52 58 65 23 10 10 6 29 77 68 71 71 74 74 74
3 3 3 3 3 3 3 6 6 6 6 6 3 3 0 0 0 0 0 13 3 6 13 23 42 29 16 10 13 26 19 3 6 3 3 55 68 61 68 74 87 77 74
3 0 0 0 0 0 3 3 3 3 3 0 0 0 0 0 0 0 0 0 3 3 0 0 3 6 6 6 6 6 6 3 0 0 0 58 81 71 71 74 77 81 74
3 3 0 0 0 0 0 3 0 0 0 0 0 0 0 0 0 0 0 0 0 0 0 0 0 0 3 3 3 6 3 0 0 0 0 58 74 74 65 65 74 87 81
0 0 0 0 0 0 0 0 0 0 0 0 0 0 0 0 0 0 0 0 0 0 0 0 0 0 3 3 3 0 0 0 0 0 3 48 71 77 65 71 74 87 81
0 0 0 0 0 0 0 0 0 0 0 0 0 0 0 0 0 0 0 0 0 0 0 0 0 0 0 0 0 0 0 0 0 0 0 10 52 65 77 74 77 77 77
0 0 0 0 0 0 0 0 0 0 0 0 0 0 0 0 0 0 0 0 0 0 0 0 0 0 0 0 0 0 0 0 0 0 0 0 3 45 74 81 74 84 71
0 0 0 0 0 0 0 0 0 0 0 0 0 0 0 0 0 0 0 0 0 0 0 0 0 0 0 0 0 0 0 0 0 0 0 0 0 3 32 71 77 84 81
0 0 0 0 0 0 0 0 0 0 0 0 0 0 0 0 0 0 0 0 0 0 0 0 0 0 0 0 0 0 0 0 0 0 0 0 0 0 3 23 65 71 74
0 0 0 0 0 0 0 0 0 0 0 0 0 0 0 0 0 0 0 0 0 0 0 0 0 0 0 0 0 0 0 0 0 0 0 0 0 0 0 3 19 32 65
0 0 0 0 0 0 0 0 0 0 0 0 0 0 0 0 0 0 0 0 0 0 0 0 0 0 0 0 0 0 0 0 0 0 0 0 0 0 0 0 6 3 19
0 0 0 0 0 0 0 0 0 0 0 0 0 0 0 0 0 0 0 0 0 0 0 0 0 0 0 0 0 0 0 0 0 0 0 0 0 0 0 0 0 3 3
0 0 0 0 0 0 0 0 0 0 0 0 0 0 0 0 0 0 0 0 0 0 0 0 0 0 0 0 0 0 0 0 0 0 0 0 0 0 0 0 0 0 3
0 0 0 0 0 0 0 0 0 0 0 0 0 0 0 0 0 0 0 0 0 0 0 0 0 0 0 0 0 0 0 0 0 0 0 0 0 0 0 0 0 0 0
0 0 0 0 0 0 0 0 0 0 0 0 0 0 0 0 0 0 0 0 0 0 0 0 0 0 0 0 0 0 0 0 0 0 0 0 0 0 0 0 0 0 0
0 0 0 0 0 0 0 0 0 0 0 0 0 0 0 0 0 0 0 0 0 0 0 0 0 0 0 0 0 0 0 0 0 0 0 0 0 0 0 0 0 0 0

GEFSSE_con_cape1000_126.txt.gz
Probability
0 3 74 74 68 74 74 77 71 61 65 58 61 71 68 74 81 87 87 87 87 87 87 84 74 71 68 68 65 61 68 68 71 65 68 71 55 61 71 68 65 68 71
3 23 74 74 68 68 71 65 55 58 61 58 61 58 65 71 84 77 87 87 84 81 84 81 81 74 77 65 58 65 65 65 71 71 74 68 61 55 61 65 65 52 74
13 42 65 71 68 65 55 48 55 55 52 55 52 52 52 61 68 74 81 87 81 81 77 77 77 74 81 77 81 71 68 65 68 77 71 48 48 48 45 45 52 58 68
26 29 48 65 61 55 42 39 35 35 39 35 42 35 35 39 48 65 58 68 71 74 77 77 84 81 81 77 81 68 71 68 74 68 23 26 32 65 61 55 55 65 55
29 32 39 61 58 48 39 35 32 29 26 26 26 23 26 32 39 48 52 48 48 61 71 71 84 74 77 81 77 65 71 71 68 48 10 10 13 52 71 65 58 61 61
19 35 39 55 48 39 35 29 29 26 23 23 23 16 23 29 26 35 39 45 42 42 48 55 68 74 68 74 74 71 68 71 55 16 10 10 13 45 68 71 55 55 55
19 23 32 45 42 32 29 29 23 23 23 23 19 23 19 13 16 16 19 23 39 39 45 48 45 55 61 71 81 77 74 68 26 13 16 10 13 48 58 58 55 52 55
16 23 26 39 39 35 26 23 19 10 10 13 13 10 10 10 10 10 6 13 16 29 29 42 52 48 55 61 68 71 68 68 32 13 13 10 26 48 55 61 68 55 55
13 16 16 19 29 32 29 23 13 13 13 13 16 10 10 3 6 6 6 6 6 19 35 42 39 32 45 65 65 58 74 68 26 6 13 6 26 55 58 61 68 68 58
10 10 10 10 10 6 16 13 10 13 13 10 10 13 13 6 3 0 0 3 3 6 13 32 39 42 48 65 68 65 65 55 6 6 6 6 39 65 65 68 65 68 61
10 10 10 10 6 6 6 10 10 10 10 10 10 10 3 3 0 0 0 3 0 0 10 16 16 29 29 32 42 45 35 13 0 0 0 13 45 58 77 68 68 71 71
3 6 6 6 6 3 3 6 6 6 3 3 3 3 3 0 0 0 0 0 3 0 6 10 19 13 6 6 10 16 6 3 0 0 0 23 48 68 65 74 71 71 74
3 0 6 3 0 0 0 3 3 3 3 3 0 0 0 0 0 0 0 0 0 0 0 0 0 0 3 3 6 3 3 3 0 0 0 16 55 61 61 65 81 71 74
3 0 0 0 0 0 0 3 3 0 0 0 0 0 0 0 0 0 0 0 0 0 0 0 0 0 0 0 3 0 0 0 0 0 0 19 52 55 52 58 74 77 71
3 0 0 0 0 0 0 0 0 0 0 0 0 0 0 0 0 0 0 0 0 0 0 0 0 0 0 0 0 0 0 0 0 0 0 6 55 58 48 61 65 74 74
0 0 0 0 0 0 0 0 0 0 0 0 0 0 0 0 0 0 0 0 0 0 0 0 0 0 0 0 0 0 0 0 0 0 0 0 16 48 58 48 61 58 61
0 0 0 0 0 0 0 0 0 0 0 0 0 0 0 0 0 0 0 0 0 0 0 0 0 0 0 0 0 0 0 0 0 0 0 0 0 19 42 48 65 68 52
0 0 0 0 0 0 0 0 0 0 0 0 0 0 0 0 0 0 0 0 0 0 0 0 0 0 0 0 0 0 0 0 0 0 0 0 0 6 16 32 45 58 52
0 0 0 0 0 0 0 0 0 0 0 0 0 0 0 0 0 0 0 0 0 0 0 0 0 0 0 0 0 0 0 0 0 0 0 0 0 0 6 10 26 42 55
0 0 0 0 0 0 0 0 0 0 0 0 0 0 0 0 0 0 0 0 0 0 0 0 0 0 0 0 0 0 0 0 0 0 0 0 0 0 0 3 6 13 35
0 0 0 0 0 0 0 0 0 0 0 0 0 0 0 0 0 0 0 0 0 0 0 0 0 0 0 0 0 0 0 0 0 0 0 0 0 0 0 0 3 6 16
0 0 0 0 0 0 0 0 0 0 0 0 0 0 0 0 0 0 0 0 0 0 0 0 0 0 0 0 0 0 0 0 0 0 0 0 0 0 0 0 0 0 6
0 0 0 0 0 0 0 0 0 0 0 0 0 0 0 0 0 0 0 0 0 0 0 0 0 0 0 0 0 0 0 0 0 0 0 0 0 0 0 0 0 0 0
0 0 0 0 0 0 0 0 0 0 0 0 0 0 0 0 0 0 0 0 0 0 0 0 0 0 0 0 0 0 0 0 0 0 0 0 0 0 0 0 0 0 0
0 0 0 0 0 0 0 0 0 0 0 0 0 0 0 0 0 0 0 0 0 0 0 0 0 0 0 0 0 0 0 0 0 0 0 0 0 0 0 0 0 0 0
0 0 0 0 0 0 0 0 0 0 0 0 0 0 0 0 0 0 0 0 0 0 0 0 0 0 0 0 0 0 0 0 0 0 0 0 0 0 0 0 0 0 0

GEFSSE_con_cape1000_132.txt.gz
Probability
10 16 48 58 58 61 65 58 65 65 65 55 61 68 68 71 77 71 77 84 81 74 74 74 77 74 65 71 71 71 68 68 68 74 74 68 55 58 61 45 65 71 65
0 13 55 55 58 55 65 61 55 52 52 48 48 42 48 52 65 74 77 74 71 71 74 77 74 74 81 74 68 71 71 68 74 84 71 71 58 55 52 45 52 74 68
6 10 29 55 52 52 45 42 42 45 45 48 45 45 39 48 48 55 68 71 68 68 71 74 77 74 77 71 77 77 68 65 74 77 68 68 65 55 52 55 55 65 68
3 10 16 42 45 39 35 35 39 35 32 35 32 32 32 39 42 48 52 52 52 48 52 61 61 71 65 68 74 84 74 68 68 65 58 48 55 58 61 55 65 58 68
3 3 23 42 42 39 29 26 29 29 29 23 23 23 23 19 32 35 42 48 42 45 39 45 55 58 68 68 65 71 74 68 61 58 65 77 74 65 58 71 65 65 58
13 16 19 39 39 26 26 26 23 26 19 19 19 19 23 23 23 26 29 35 35 42 45 45 48 55 55 68 58 74 65 65 58 48 58 65 58 55 52 61 68 52 55
6 6 13 26 26 29 23 23 19 16 13 13 13 16 19 16 13 10 10 16 26 39 42 45 42 42 35 48 61 61 74 58 35 42 42 55 58 48 55 58 61 58 58
3 6 10 29 23 26 19 23 19 16 13 10 6 13 6 6 3 3 6 10 10 13 26 35 45 35 39 42 48 55 65 65 16 16 26 39 52 42 52 61 58 52 48
3 6 6 10 10 13 16 16 16 10 13 6 10 6 3 6 3 3 3 3 6 6 3 13 26 29 32 39 45 42 58 61 26 26 10 23 52 52 48 65 55 61 45
3 6 6 3 3 3 3 13 10 10 10 6 6 6 6 6 0 3 3 3 3 6 3 10 16 16 26 42 39 39 45 45 23 19 19 19 39 39 55 61 65 61 52
6 3 3 3 3 3 3 3 6 10 6 3 3 3 3 0 0 0 0 0 0 0 3 3 10 16 19 23 29 32 29 32 26 19 13 26 32 42 55 52 65 52 48
6 6 3 3 3 3 0 3 3 3 3 0 0 3 3 0 0 0 0 0 0 0 0 6 10 13 10 16 19 23 23 23 32 23 13 23 29 39 48 48 55 55 45
3 0 0 3 3 3 0 0 0 0 3 3 3 0 0 0 0 0 0 0 0 0 0 3 6 10 6 13 19 16 16 13 23 16 19 29 29 45 42 45 48 45 48
3 6 0 3 6 3 0 0 0 0 3 3 3 0 0 0 0 0 0 0 0 0 0 0 3 6 10 3 10 13 13 10 10 13 45 29 32 42 52 52 52 52 45
6 3 3 3 3 3 3 0 0 0 0 0 3 0 0 0 0 0 0 0 0 0 0 3 3 6 6 6 10 6 10 6 6 10 16 6 26 42 39 39 58 52 52
3 0 0 3 3 3 3 0 0 0 0 3 3 0 0 0 0 0 3 0 0 0 0 3 0 3 3 6 6 6 10 10 3 3 3 6 19 39 32 23 45 52 55
0 0 0 0 0 3 0 0 0 0 0 0 3 3 0 0 0 0 0 3 0 0 0 0 0 0 0 3 6 6 10 16 6 3 3 13 10 16 26 16 26 48 52
3 3 3 3 3 3 0 0 0 0 0 0 0 0 0 0 0 0 0 3 0 0 0 0 0 0 0 0 0 6 6 13 3 0 6 10 10 16 26 32 39 48 52
3 3 3 6 6 6 3 3 0 0 0 0 0 0 0 0 0 0 0 3 0 0 0 0 3 0 0 0 0 6 6 6 6 3 0 0 10 16 19 19 29 45 61
6 6 6 6 6 6 6 6 6 3 3 3 0 0 0 0 0 0 0 0 0 3 0 0 0 0 0 0 0 3 6 6 3 3 3 6 13 3 10 10 26 23 42
6 6 3 6 6 6 6 6 6 6 3 3 3 0 0 0 0 0 3 0 0 3 0 0 0 0 0 0 3 3 3 3 3 0 3 10 3 10 10 10 26 16 26
0 0 0 3 3 3 3 3 3 3 0 0 0 0 0 0 0 0 0 0 0 3 0 0 0 6 0 0 6 6 0 3 0 0 3 6 6 13 10 6 6 19 23
0 0 0 0 0 0 0 0 0 0 0 0 0 0 0 0 0 0 0 0 0 0 0 0 0 0 3 3 6 3 3 0 0 0 0 0 16 13 10 6 13 13 10
0 0 0 0 0 0 0 0 0 0 0 0 0 0 0 0 0 0 0 0 0 0 0 0 0 0 0 0 0 0 0 3 6 0 3 3 6 10 10 6 10 13 13
0 0 0 0 0 0 0 0 0 0 0 0 0 0 0 0 0 0 0 0 0 0 0 0 0 3 3 6 0 3 0 3 0 0 0 3 6 10 10 13 13 16 16
0 0 0 0 0 0 0 0 0 0 0 0 0 0 0 0 0 0 0 0 0 0 0 0 3 3 10 3 3 3 3 0 0 3 3 3 6 6 6 13 6 19 16